FLOCK 4E'-6 (46822 NORAD) Tracking and Keplerian Element Data

This shows tracking and keplerian element data for the satellite.

Feedback or suggestion? Click here.




ElementValue
Catalog46822
NameFLOCK 4E'-6
Epoch Orbit424
Epoch Day330.88981321
Epoch Year2020
RAAN31.0072
Inclination97.4911
Eccentricity0.0012421
Argument of Perigee199.2599
Mean Anonmoly160.8186
Mean Motion15.16879784
Decay Rate4.116E-05
L11 46822U 20077K 20330.88981321 .00004116 00000-0 21210-3 0 9997
L22 46822 97.4911 31.0072 0012421 199.2599 160.8186 15.16879784 4248

Live tracking and technical data element details for FLOCK 4E'-6 (NORAD 46822). FLOCK 4E'-6 can be tracked NOW for your location showing map with azimuth and elevation plus other details from your city location.

Track the satellite on the map from your city or location and see movement details for azimuth, elevation, latitude, longitude, range, height, and movement on the map or in text.







IsCatalogInMostPopularTable: catalog: 46822, numindb: 8
Update: records affected: 1



GetName: 46822 FLOCK 4E'-6

Hit Count: updated at: Thu, 26 Nov 2020 17:23:54 GMT